SHADY23 KTBN-KTBN

Flight info

Callsign SHADY23
Flight time 0h 0m
Altitude 2000
Route HELICOPTER VFR
Aircraft H500/L-V/N

Departure

Time 2026-04-16 13:27
Airport Waynesville-St. Robert Regional Airport-Forney Field (KTBN)

Arrival

Time 2026-04-16 13:28
Airport Waynesville-St. Robert Regional Airport-Forney Field (KTBN)
Time Latitude Longitude Altitude Speed Heading
2026-04-16 13:07 37.72994 -92.14129 1156 ft 0 kts 291°
2026-04-16 13:17 37.72990 -92.14107 1169 ft 11 kts 287°
2026-04-16 13:17 37.72959 -92.14045 1172 ft 3 kts 296°
2026-04-16 13:18 37.72971 -92.14063 1174 ft 2 kts 356°
2026-04-16 13:18 37.73002 -92.14041 1188 ft 18 kts 14°
2026-04-16 13:18 37.73223 -92.13939 1206 ft 45 kts 21°
2026-04-16 13:18 37.73502 -92.13795 1177 ft 30 kts 20°
2026-04-16 13:19 37.73593 -92.13745 1167 ft 6 kts 30°
2026-04-16 13:19 37.73638 -92.13669 1179 ft 18 kts 119°
2026-04-16 13:19 37.73496 -92.13548 1257 ft 39 kts 153°
2026-04-16 13:19 37.73222 -92.13307 1434 ft 54 kts 147°
2026-04-16 13:20 37.72877 -92.13022 1555 ft 70 kts 154°
2026-04-16 13:20 37.72360 -92.13192 1537 ft 89 kts 223°
2026-04-16 13:20 37.72244 -92.13988 1534 ft 106 kts 284°
2026-04-16 13:20 37.72790 -92.14652 1460 ft 117 kts 325°
2026-04-16 13:21 37.73445 -92.15198 1527 ft 113 kts 323°
2026-04-16 13:21 37.74114 -92.15748 1524 ft 116 kts 323°
2026-04-16 13:21 37.74783 -92.16322 1511 ft 116 kts 322°
2026-04-16 13:21 37.75443 -92.16888 1505 ft 115 kts 322°
2026-04-16 13:22 37.76099 -92.17452 1504 ft 113 kts 323°
2026-04-16 13:22 37.76821 -92.17850 1500 ft 116 kts 355°
2026-04-16 13:22 37.77534 -92.17445 1500 ft 114 kts 50°
2026-04-16 13:22 37.77724 -92.16554 1505 ft 106 kts 105°
2026-04-16 13:23 37.77307 -92.15847 1503 ft 101 kts 149°
2026-04-16 13:23 37.76665 -92.15574 1498 ft 95 kts 186°
2026-04-16 13:23 37.76011 -92.15600 1492 ft 95 kts 170°
2026-04-16 13:23 37.75439 -92.15296 1458 ft 83 kts 154°
2026-04-16 13:24 37.75028 -92.14809 1385 ft 79 kts 148°
2026-04-16 13:24 37.74592 -92.14431 1287 ft 76 kts 164°
2026-04-16 13:24 37.74168 -92.14068 1239 ft 68 kts 157°
2026-04-16 13:24 37.73929 -92.13886 1220 ft 5 kts 143°
2026-04-16 13:25 37.73835 -92.13800 1263 ft 35 kts 155°
2026-04-16 13:25 37.73492 -92.13557 1436 ft 77 kts 138°
2026-04-16 13:25 37.72992 -92.13118 1741 ft 93 kts 137°
2026-04-16 13:25 37.72341 -92.12712 1758 ft 115 kts 175°
2026-04-16 13:26 37.71607 -92.13051 1749 ft 116 kts 221°
2026-04-16 13:26 37.71276 -92.13939 1755 ft 111 kts 258°
2026-04-16 13:26 37.71524 -92.14847 1758 ft 116 kts 308°
2026-04-16 13:26 37.72193 -92.15429 1756 ft 117 kts 328°
2026-04-16 13:27 37.72930 -92.15845 1756 ft 115 kts 334°
2026-04-16 13:27 37.73722 -92.15987 1750 ft 119 kts
2026-04-16 13:27 37.74316 -92.15409 1780 ft 97 kts 109°
2026-04-16 13:27 37.74152 -92.14954 1747 ft 83 kts 159°
2026-04-16 13:28 37.73352 -92.14717 1369 ft 101 kts 190°
2026-04-16 13:28 37.72990 -92.14844 1221 ft 45 kts 197°
2026-04-16 13:28 37.72886 -92.14895 1149 ft 0 kts 194°
2026-04-16 13:28 37.72857 -92.14910 1178 ft 20 kts 194°
2026-04-16 13:29 37.72595 -92.15013 1337 ft 46 kts 200°
2026-04-16 13:29 37.72632 -92.15397 1526 ft 69 kts 346°
2026-04-16 13:29 37.73219 -92.15436 1525 ft 103 kts
2026-04-16 13:29 37.73786 -92.15019 1504 ft 83 kts 105°
2026-04-16 13:30 37.73516 -92.14642 1311 ft 62 kts 191°
2026-04-16 13:30 37.73128 -92.14780 1216 ft 39 kts 189°
2026-04-16 13:30 37.73038 -92.14825 1158 ft 0 kts 189°
2026-04-16 13:30 37.72997 -92.14846 1205 ft 24 kts 190°
2026-04-16 13:31 37.72844 -92.14910 1159 ft 4 kts 194°
2026-04-16 13:31 37.72840 -92.14911 1144 ft 0 kts 198°
2026-04-16 13:31 37.72806 -92.14931 1172 ft 21 kts 193°
2026-04-16 13:31 37.72581 -92.15086 1270 ft 43 kts 256°
2026-04-16 13:32 37.72874 -92.15259 1382 ft 71 kts 16°
2026-04-16 13:32 37.73465 -92.15150 1361 ft 96 kts
2026-04-16 13:32 37.74009 -92.14754 1369 ft 82 kts 113°
2026-04-16 13:32 37.73693 -92.14502 1247 ft 72 kts 196°
2026-04-16 13:33 37.73207 -92.14740 1188 ft 69 kts 197°
2026-04-16 13:33 37.73005 -92.14838 1153 ft 0 kts 191°
2026-04-16 13:33 37.72987 -92.14850 1182 ft 16 kts 193°
2026-04-16 13:33 37.72727 -92.14948 1241 ft 56 kts 206°
2026-04-16 13:34 37.72387 -92.14750 1365 ft 79 kts 90°
2026-04-16 13:34 37.72866 -92.14264 1356 ft 111 kts 17°
2026-04-16 13:34 37.73637 -92.14050 1288 ft 113 kts 331°
2026-04-16 13:34 37.73669 -92.14524 1183 ft 67 kts 202°
2026-04-16 13:35 37.73230 -92.14733 1183 ft 70 kts 198°
2026-04-16 13:35 37.72996 -92.14836 1168 ft 5 kts 237°
2026-04-16 13:35 37.72983 -92.14847 1168 ft 11 kts 200°
2026-04-16 13:35 37.72777 -92.14939 1282 ft 51 kts 198°
2026-04-16 13:36 37.72547 -92.15284 1515 ft 66 kts 312°
2026-04-16 13:36 37.73083 -92.15390 1590 ft 101 kts
2026-04-16 13:36 37.73856 -92.15133 1459 ft 127 kts 36°
2026-04-16 13:36 37.73984 -92.14280 1378 ft 97 kts 153°
2026-04-16 13:37 37.73597 -92.13890 1203 ft 40 kts 155°
2026-04-16 13:37 37.73415 -92.13844 1174 ft 19 kts 194°
2026-04-16 13:37 37.73335 -92.13883 1175 ft 11 kts 200°
2026-04-16 13:37 37.73249 -92.13919 1180 ft 15 kts 202°
2026-04-16 13:38 37.73132 -92.13984 1194 ft 21 kts 203°
2026-04-16 13:38 37.73009 -92.14048 1188 ft 14 kts 202°
2026-04-16 13:38 37.72973 -92.14070 1170 ft 2 kts 264°
2026-04-16 13:38 37.72977 -92.14076 1180 ft 2 kts 293°
2026-04-16 13:39 37.72987 -92.14096 1180 ft 2 kts 295°
2026-04-16 13:39 37.72991 -92.14112 1168 ft 2 kts 296°
2026-04-16 13:39 37.72993 -92.14118 1161 ft 1 kts 295°
2026-04-16 13:39 37.72993 -92.14121 1156 ft 0 kts 297°